Dothan, AL

1:55 AM CDT on March 30, 2017 (GMT -0500)
Dothan Regional

Weather History for KDHN - June, 2014

Change the Weather History Date:

Tuesday, June 10, 2014

  Actual Average Record
Temperature  
Mean Temperature 82 °F 79 °F  
Max Temperature 92 °F 90 °F 101 °F (1954)
Min Temperature 71 °F 69 °F 64 °F (1960)
Cooling Degree Days 17 14  
Month to date cooling degree days 144 135  
Year to date cooling degree days 529 548  
Since 1 June cooling degree days 144 135  
Growing Degree Days 31 (Base 50)    
Moisture  
Dew Point 71 °F    
Average Humidity 80    
Maximum Humidity 97    
Minimum Humidity 47    
Precipitation  
Precipitation 0.02 in 0.20 in 1.72 in (1953)
Month to date precipitation 0.76 1.85  
Year to date precipitation 30.83 24.21  
Sea Level Pressure  
Sea Level Pressure 29.98 in    
Wind  
Wind Speed 7 mph (South)    
Max Wind Speed 18 mph    
Max Gust Speed 22 mph    
Visibility 10 miles    
Events      
T = Trace of Precipitation, MM = Missing Value Source: NWS Daily Summary

Daily Weather History Graph

Daily Weather History Graph

Search for Another Location

Airport or City:

Trip Planner

Search our weather history database for the weather conditions in past years. The results will help you decide how hot, cold, wet, or windy it might be!

Date:

Astronomy

Jun. 10, 2014 Rise Set
Actual Time 5:36 AM CDT 7:45 PM CDT
Civil Twilight 5:09 AM CDT 8:13 PM CDT
Nautical Twilight 4:35 AM CDT 8:47 PM CDT
Astronomical Twilight 3:58 AM CDT 9:24 PM CDT
Moon 5:18 PM CDT (6/10) 3:31 AM CDT (6/10)
Length of Visible Light 15h 04m
Length of Day
14h 08m
Waxing Gibbous, 92% of the Moon is Illuminated
Jun 10
Waxing Gibbous
Jun 12
Full
Jun 19
Last Quarter
Jun 27
New
Jul 5
First Quarter

Hourly Weather History & Observations

Time (CDT) Temp. Heat Index Dew Point Humidity Pressure Visibility Wind Dir Wind Speed Gust Speed Precip Events Conditions
12:53 AM 75.0 °F - 73.0 °F 94% 29.98 in 10.0 mi South 4.6 mph - N/A   Partly Cloudy
1:53 AM 73.9 °F - 72.0 °F 93% 29.97 in 10.0 mi South 3.5 mph - N/A   Clear
2:53 AM 73.0 °F - 72.0 °F 96% 29.95 in 10.0 mi SSE 8.1 mph - N/A   Clear
3:53 AM 73.0 °F - 72.0 °F 96% 29.95 in 8.0 mi SSW 3.5 mph - N/A   Scattered Clouds
4:05 AM 73.4 °F - 71.6 °F 94% 29.97 in 10.0 mi SSW 4.6 mph - N/A   Mostly Cloudy
4:53 AM 73.9 °F - 73.0 °F 97% 29.96 in 9.0 mi SSW 4.6 mph - N/A   Overcast
5:53 AM 73.9 °F - 73.0 °F 97% 29.97 in 4.0 mi SSW 4.6 mph - N/A   Overcast
6:53 AM 75.0 °F - 73.0 °F 94% 29.99 in 10.0 mi SSW 4.6 mph - N/A   Overcast
7:14 AM 75.2 °F - 73.4 °F 94% 30.02 in 10.0 mi SSW 3.5 mph - N/A   Overcast
7:53 AM 77.0 °F - 73.9 °F 90% 30.00 in 10.0 mi SSE 5.8 mph - N/A   Overcast
8:20 AM 78.8 °F - 73.4 °F 83% 30.03 in 10.0 mi South 8.1 mph - N/A   Overcast
8:53 AM 80.1 °F 84.2 °F 73.0 °F 79% 30.01 in 10.0 mi South 10.4 mph - N/A   Mostly Cloudy
9:20 AM 80.6 °F 84.6 °F 71.6 °F 74% 30.02 in 10.0 mi South 10.4 mph - N/A   Scattered Clouds
10:24 AM 84.2 °F 89.6 °F 71.6 °F 66% 30.02 in 10.0 mi South 11.5 mph - N/A   Scattered Clouds
10:53 AM 84.9 °F 90.7 °F 72.0 °F 65% 30.00 in 10.0 mi South 8.1 mph - N/A   Scattered Clouds
11:53 AM 87.1 °F 93.6 °F 72.0 °F 61% 29.98 in 10.0 mi SSW 8.1 mph - N/A   Mostly Cloudy
12:53 PM 89.1 °F 97.0 °F 73.0 °F 59% 29.96 in 10.0 mi SSW 10.4 mph - N/A   Scattered Clouds
1:53 PM 90.0 °F 95.4 °F 70.0 °F 52% 29.94 in 10.0 mi South 17.3 mph 21.9 mph N/A   Mostly Cloudy
2:53 PM 91.9 °F 96.9 °F 69.1 °F 47% 29.94 in 10.0 mi SW 15.0 mph 21.9 mph N/A   Scattered Clouds
4:53 PM 89.1 °F 92.9 °F 68.0 °F 50% 29.93 in 10.0 mi SSW 13.8 mph - N/A   Partly Cloudy
5:53 PM 86.0 °F 89.4 °F 68.0 °F 55% 29.93 in 10.0 mi SW 9.2 mph - N/A   Clear
6:40 PM 77.0 °F - 66.2 °F 69% 29.97 in 10.0 mi NW 18.4 mph - N/A   Mostly Cloudy
6:53 PM 77.0 °F - 66.9 °F 71% 29.96 in 10.0 mi NW 11.5 mph - N/A   Overcast
7:53 PM 73.9 °F - 69.1 °F 85% 29.96 in 10.0 mi Calm Calm - 0.02 in   Mostly Cloudy
8:53 PM 72.0 °F - 70.0 °F 93% 29.96 in 10.0 mi ESE 3.5 mph - N/A   Partly Cloudy
10:39 PM 73.4 °F - 69.8 °F 88% 29.99 in 10.0 mi ESE 5.8 mph - N/A   Mostly Cloudy
10:53 PM 72.0 °F - 69.1 °F 91% 29.99 in 10.0 mi SE 5.8 mph - N/A   Mostly Cloudy
11:05 PM 71.6 °F - 69.8 °F 94% 30.00 in 10.0 mi ESE 4.6 mph - N/A   Partly Cloudy
11:23 PM 73.4 °F - 69.8 °F 88% 30.01 in 10.0 mi Calm Calm - N/A   Mostly Cloudy
11:53 PM 72.0 °F - 69.1 °F 91% 29.98 in 10.0 mi SE 6.9 mph - N/A   Scattered Clouds